Location: Newark
(35.2672°N, 80.7344°W)
Time: 06:45:27
(UTC+00:00)

Tiros 1 - Pass Details

Date: 20 January 2020
Orbit: 631 x 664 km, 48.4° (Epoch: 17 February)

Event Time Altitude Azimuth Distance (km) Brightness Sun altitude
Rises 22:07:08 0° 293° (WNW) 2,964 11.2 4.9°
Reaches altitude 10° 22:10:14 10° 313° (NW) 2,061 10.0 4.3°
Maximum altitude 22:13:20 17° 354° (N) 1,650 9.1 3.8°
Drops below altitude 10° 22:16:28 10° 35° (NE) 2,073 9.2 3.2°
Sets 22:19:36 0° 56° (NE) 2,990 9.9 2.6°
